Location: Guferjoch
(46.7462°N, 8.4506°E)
Time: 23:47:16
(UTC+00:00)

Cosmos 2278 - Pass Details

Date: 14 July 2020
Orbit: 838 x 854 km, 71.1° (Epoch: 14 August)

Event Time Altitude Azimuth Distance (km) Brightness Sun altitude
Rises 02:00:01 0° 332° (NNW) 3,433 7.2 -13.9°
Reaches altitude 10° 02:02:29 10° 331° (NNW) 2,494 6.5 -13.7°
Maximum altitude 02:08:13 79° 247° (WSW) 876 3.7 -13.1°
Drops below altitude 10° 02:13:54 10° 161° (SSE) 2,476 5.8 -12.5°
Sets 02:16:20 0° 160° (SSE) 3,407 6.5 -12.2°
